RH
58 58 59 60 61 63 64 65 66 67 68 73 80 87 93 98 99 99 98 95 93 92 92 91 90 90 89 84 82 83 87 90 90 90 89 90 90 91 92 92 94 96 98 99 99 100 100 100 100 100 100 100 100 100 100 100 100 100 100 100 100 100 100 100 99 99 100 100 100 100 100 100 99 99 99 99 99 99 99 97 94 92 89 87 87 87
59 58 58 58 60 61 62 64 66 68 69 70 75 83 92 98 99 99 99 98 95 91 90 88 87 87 87 83 81 83 88 91 93 93 92 92 93 93 93 93 93 94 95 96 97 99 99 100 100 100 100 100 100 100 100 100 100 100 100 100 100 100 100 99 99 99 100 100 100 100 100 100 99 99 99 99 98 97 95 92 88 84 80 78 78 79
60 57 57 57 59 60 61 63 65 67 69 69 72 78 89 96 99 100 100 99 95 91 87 84 83 85 87 83 81 80 84 89 92 94 95 95 96 96 96 95 94 93 93 93 94 95 97 99 100 100 100 100 100 100 100 100 100 100 100 100 100 100 100 99 99 99 100 100 100 100 100 100 99 99 98 96 93 89 84 80 75 71 68 67 68 70
60 58 58 58 59 60 62 63 64 66 69 70 71 74 83 93 99 100 100 100 98 96 94 91 90 91 94 92 88 83 82 85 89 93 95 97 98 98 98 97 96 94 92 91 91 92 94 97 99 100 100 100 100 100 100 100 100 100 100 100 100 100 100 100 99 99 100 100 100 100 99 99 97 95 91 86 81 76 71 68 66 64 64 65 68 71
62 60 59 59 59 61 62 63 65 67 72 73 71 71 76 89 97 100 100 100 100 100 99 99 99 99 99 99 97 94 90 89 90 93 95 97 98 98 98 98 97 95 93 91 90 90 92 95 98 99 100 100 100 100 100 100 100 100 100 100 100 100 100 100 100 99 100 100 100 99 98 96 92 88 82 77 73 70 67 67 68 69 71 73 74 76
66 64 61 60 60 60 62 64 66 70 76 76 74 72 72 83 93 99 100 100 100 100 100 100 100 100 100 100 100 99 98 97 96 96 97 98 98 98 98 98 96 95 93 91 90 90 91 94 97 99 100 100 100 100 100 100 100 100 100 100 100 100 100 100 100 100 100 100 99 98 96 91 87 82 78 76 74 74 73 75 77 78 79 79 79 79
74 70 66 62 60 59 62 65 68 72 75 78 78 76 73 80 89 97 100 100 100 100 100 100 100 100 100 100 100 100 100 100 99 99 99 99 99 99 99 98 96 95 93 91 90 91 93 96 98 99 100 100 100 100 100 100 100 100 100 100 100 100 100 100 100 100 100 99 98 96 92 88 83 80 78 79 79 80 81 82 82 81 80 79 79 79
82 77 72 65 61 60 63 67 70 72 73 75 78 80 78 81 86 93 98 99 100 100 100 100 100 100 100 100 100 100 100 100 100 100 100 100 100 100 99 98 97 96 95 93 93 94 97 99 100 100 100 100 100 100 100 100 100 100 100 100 100 100 100 100 100 99 99 98 96 93 89 85 82 80 80 82 83 83 83 82 81 79 78 78 78 79
89 84 77 68 63 63 66 69 71 72 72 72 76 80 82 83 86 90 96 99 100 99 100 100 100 100 100 100 100 100 100 100 100 100 100 100 100 100 100 99 98 96 96 97 97 99 100 100 100 100 100 100 100 100 100 100 100 100 100 100 100 100 99 100 99 99 99 95 92 89 86 84 82 81 82 83 83 81 79 77 76 76 77 78 78 79
93 89 81 71 66 65 69 71 72 72 72 71 73 77 81 83 87 92 97 99 100 100 100 100 100 100 100 100 100 100 100 100 100 100 100 100 100 100 100 99 98 97 97 98 99 100 100 100 100 100 100 100 100 100 100 100 100 100 100 99 99 99 99 99 99 99 97 92 89 86 85 84 84 83 82 81 79 76 73 73 74 75 76 78 78 79
97 94 88 77 70 68 70 72 71 71 72 73 75 79 83 83 86 91 99 100 100 100 100 100 100 100 100 100 100 100 100 100 100 100 100 100 100 100 100 99 99 98 98 99 100 100 100 100 100 100 100 100 100 100 99 100 100 100 99 99 99 99 99 99 99 98 96 92 89 87 86 85 84 82 79 76 73 72 71 73 74 76 77 78 78 79
98 98 95 87 80 75 74 74 72 72 73 78 84 90 94 90 86 87 98 99 99 100 100 100 100 100 100 100 100 100 100 100 100 99 99 100 100 100 100 100 100 99 99 100 100 100 100 100 100 100 99 99 100 100 100 99 99 99 99 99 98 98 98 98 98 97 95 93 90 88 86 83 80 77 75 72 71 71 72 74 75 76 77 78 79 79
99 99 99 93 87 82 79 77 75 74 76 83 89 93 95 94 88 86 93 97 99 100 100 100 100 100 100 100 100 100 100 100 99 99 99 99 99 100 100 100 100 100 100 100 100 100 100 100 100 100 100 99 100 100 99 99 99 99 98 97 96 96 96 96 96 95 93 90 88 84 81 79 76 74 73 72 72 73 74 75 76 77 78 78 78 78
98 97 95 91 87 83 82 81 79 78 80 86 89 88 86 87 88 90 93 97 99 99 100 100 100 99 99 99 100 100 100 100 99 98 97 99 99 99 100 100 100 100 100 100 100 100 100 100 100 100 100 99 99 99 99 99 99 98 97 96 95 94 94 93 92 90 88 85 82 79 77 76 75 74 74 74 74 74 75 76 76 77 77 77 76 75
97 97 95 91 87 84 82 82 81 81 81 85 88 88 85 86 90 95 97 98 99 99 99 99 100 100 100 99 99 100 100 100 99 99 99 99 99 99 99 99 100 100 100 100 100 100 100 100 100 100 99 99 99 99 99 99 98 96 95 94 93 92 91 89 86 83 79 76 74 73 73 73 73 73 74 75 75 76 76 76 77 76 76 75 74 73
99 99 98 97 95 93 92 93 93 92 88 90 91 91 91 90 94 98 97 98 99 100 100 100 100 100 100 99 99 99 99 100 100 100 100 99 98 97 98 99 100 100 100 100 100 100 100 100 100 100 99 99 99 99 98 97 96 94 92 90 88 86 82 79 75 71 67 64 62 61 62 64 65 67 69 72 74 76 77 78 77 76 75 74 73 72
99 99 98 98 98 99 99 99 99 99 98 98 98 97 97 96 97 98 96 96 98 99 99 98 98 99 98 99 100 99 99 99 100 100 100 100 98 95 93 97 99 100 100 100 100 100 100 100 100 100 100 99 99 99 98 97 94 92 90 87 83 78 73 68 63 59 55 52 50 49 50 53 56 60 64 69 73 76 78 78 77 76 74 73 71 70
98 99 99 98 99 99 100 99 99 99 99 99 99 99 99 99 99 98 97 96 98 99 98 96 95 96 96 99 99 99 99 99 99 99 99 100 99 97 93 94 96 99 100 100 100 100 100 100 100 100 100 99 99 99 98 96 94 91 88 85 80 75 68 63 59 55 51 48 47 48 50 53 58 63 68 72 75 77 77 77 75 74 72 70 67 64
97 98 99 99 99 99 100 100 100 100 100 99 99 99 100 100 100 99 99 98 98 98 98 96 93 91 92 96 99 99 99 99 99 98 99 99 99 99 98 96 97 99 99 99 100 100 100 100 100 100 100 99 99 98 97 95 92 90 87 84 80 76 73 69 65 62 59 58 57 58 60 64 68 72 76 78 78 78 77 75 72 69 66 64 60 56
96 98 99 98 99 99 100 100 100 100 100 100 100 99 99 100 100 100 99 99 99 99 98 96 93 90 90 96 99 99 99 98 98 98 99 99 99 99 99 99 99 100 99 99 99 100 100 100 100 99 99 98 97 96 94 92 89 87 83 80 78 76 74 74 72 70 69 68 68 69 70 73 75 77 79 79 79 77 74 71 67 63 59 55 52 47
96 97 98 98 99 99 99 100 100 100 100 100 100 100 99 99 99 100 100 99 99 99 99 97 94 90 90 96 99 99 99 97 96 96 98 99 100 99 99 99 99 99 99 99 99 99 100 100 100 100 100 99 97 95 93 90 85 80 74 69 65 61 59 57 58 60 61 63 65 66 68 71 73 74 74 73 72 69 66 62 58 54 50 46 43 40
96 96 96 97 98 99 99 100 100 100 100 100 100 100 99 99 99 99 100 100 100 100 99 98 95 93 92 97 99 99 99 96 96 96 96 98 99 100 99 99 99 99 99 99 99 99 99 100 100 100 100 100 99 97 94 90 84 77 69 62 57 52 48 46 46 48 51 53 57 60 63 65 67 68 67 65 63 60 57 53 49 45 42 39 38 37
95 95 95 97 97 98 99 100 100 100 100 100 100 100 100 99 99 99 99 99 100 100 99 99 98 97 96 98 99 99 98 96 95 95 93 96 98 99 99 99 99 99 99 99 99 99 99 100 100 100 100 100 99 97 95 91 86 80 73 66 60 56 53 53 54 57 61 66 69 72 74 75 75 75 73 70 67 63 59 55 51 47 43 40 38 38
95 96 96 96 97 97 98 99 99 99 99 100 100 100 100 99 99 99 99 99 99 99 99 98 98 98 99 99 99 98 98 95 93 91 90 94 98 100 99 99 99 99 100 99 99 99 99 100 100 100 100 100 99 97 95 93 90 88 83 79 75 72 71 72 74 77 80 83 86 88 89 88 87 85 82 79 75 71 67 62 57 52 48 44 42 41
95 95 95 95 95 95 96 98 99 99 99 99 100 100 100 100 100 100 100 99 99 98 98 99 99 99 100 99 99 98 97 95 92 90 90 93 97 100 99 99 99 99 100 100 100 100 100 100 100 100 100 100 99 98 97 96 94 93 92 90 89 88 87 88 90 92 94 95 96 97 97 96 94 91 87 83 78 73 68 64 59 54 50 47 45 43
94 94 95 95 95 94 94 96 98 99 99 99 99 100 100 99 99 100 100 99 99 99 99 99 99 99 99 99 98 97 96 94 92 90 89 91 95 99 99 99 99 100 100 100 100 100 100 100 100 100 100 100 100 99 99 98 97 97 97 97 96 96 96 97 98 98 98 99 99 99 99 98 96 93 89 84 79 74 69 63 58 54 50 48 45 43
94 94 95 95 96 96 95 96 97 98 98 98 99 99 100 99 99 99 99 99 99 99 98 97 97 97 99 98 97 96 94 92 90 88 87 89 93 98 100 100 100 100 100 100 100 100 99 100 100 100 100 100 100 100 99 99 99 99 99 99 99 99 99 99 99 99 99 99 98 98 98 96 93 89 85 81 76 72 67 63 58 55 51 48 45 43
94 94 95 95 95 96 96 96 96 97 97 97 97 98 98 99 99 99 99 99 99 99 95 95 95 95 95 96 96 96 93 92 90 88 86 88 92 97 100 100 100 99 99 100 100 100 99 100 100 100 100 100 100 100 100 100 99 99 99 99 99 99 99 99 99 99 99 98 97 96 94 90 87 84 80 77 73 69 65 62 58 54 49 47 45 43
92 93 93 94 94 94 94 95 96 96 96 95 96 96 96 97 98 98 99 100 99 98 96 95 95 94 94 96 97 97 95 94 93 91 88 90 93 97 100 99 99 98 97 98 99 99 99 99 99 100 100 100 100 100 100 100 100 100 100 99 99 99 99 99 99 99 98 97 95 93 90 87 84 82 79 75 72 69 65 61 56 52 48 46 44 43
90 90 91 92 93 93 93 94 95 95 95 94 94 95 95 96 97 98 99 100 99 98 96 97 96 96 96 96 97 98 98 98 97 95 92 91 93 97 99 98 95 93 91 92 94 97 99 99 99 100 100 100 100 100 100 100 100 100 100 100 100 100 99 99 99 99 98 96 94 92 89 87 84 82 79 76 72 68 63 59 54 50 47 45 44 43
89 90 91 92 92 93 93 93 94 94 93 92 93 94 95 95 96 98 99 100 100 99 97 97 97 96 95 93 94 97 98 99 99 97 94 90 91 95 97 94 90 87 84 83 85 91 97 99 100 100 100 100 100 100 100 100 100 100 100 100 100 100 100 100 99 99 98 96 94 92 89 86 83 80 77 73 69 64 59 55 51 48 46 44 42 42
88 89 91 92 92 92 92 93 93 93 93 92 92 93 95 95 96 97 98 99 99 99 99 98 98 98 96 93 94 97 99 99 99 98 94 91 92 94 94 90 87 84 80 78 79 84 94 98 100 100 100 100 100 100 100 100 100 100 100 100 100 100 100 99 99 98 97 95 93 90 86 82 79 75 71 67 62 58 54 51 48 46 44 43 42 41
85 86 88 90 91 92 92 92 92 93 94 93 93 94 94 95 95 96 97 98 99 99 99 99 99 99 99 97 97 98 99 100 100 99 97 94 93 93 92 89 86 84 81 80 81 85 91 96 99 100 100 100 100 100 100 100 100 100 100 100 100 100 99 99 98 97 95 92 89 84 80 76 72 68 64 60 56 52 49 47 45 44 44 43 43 43
82 84 85 88 89 91 91 92 92 92 94 94 94 94 94 94 95 95 96 97 97 98 98 98 99 99 100 99 99 99 99 100 100 100 99 96 94 93 93 89 86 85 84 86 88 90 93 97 99 99 100 100 100 100 100 100 100 100 100 99 100 99 99 98 96 94 92 88 84 79 74 69 65 61 57 53 51 48 46 44 43 44 45 46 47 49
80 81 83 85 88 90 91 91 91 92 93 93 94 94 93 93 94 94 94 95 96 97 97 97 98 98 99 99 99 99 99 100 100 100 99 98 95 93 92 88 86 85 86 88 89 91 93 97 98 98 99 100 100 100 100 100 100 100 100 99 99 99 99 97 94 91 88 84 79 74 69 63 58 54 51 49 48 46 44 44 45 47 49 52 54 56
77 79 81 83 86 89 90 91 92 92 92 93 93 93 93 93 93 93 93 94 95 95 96 96 97 97 97 98 98 98 99 99 100 100 100 99 96 93 91 88 86 86 86 88 88 90 93 96 97 98 98 99 99 99 100 100 100 100 99 99 99 98 97 95 92 89 85 80 74 67 61 56 52 49 48 47 47 48 48 49 50 52 53 55 56 57
76 77 78 81 84 87 90 91 92 92 92 93 93 93 93 93 93 93 94 94 94 95 96 96 96 96 96 97 97 98 98 99 100 100 100 99 97 94 92 90 89 88 88 89 90 91 93 96 96 95 95 95 97 99 99 99 99 99 98 97 96 95 93 91 89 85 80 73 65 58 54 51 49 48 48 50 51 53 54 55 55 55 54 53 52 51
74 75 77 79 82 85 88 91 92 92 92 92 92 92 93 93 93 93 93 94 94 95 96 96 97 96 95 96 97 97 99 100 100 100 100 99 97 94 93 92 91 90 90 91 92 93 93 93 92 92 91 93 96 99 99 99 99 98 98 95 92 89 86 84 82 78 72 65 58 54 51 50 50 51 52 54 56 56 56 56 56 56 54 51 48 44
74 75 76 77 80 83 87 90 91 92 92 92 92 92 92 93 93 93 93 93 94 94 94 95 96 96 96 96 97 98 99 100 100 100 100 99 96 94 93 93 93 93 93 94 94 93 91 89 89 89 90 93 97 99 99 99 98 98 98 95 90 86 82 78 74 70 65 59 57 56 56 56 56 57 58 58 58 58 58 57 58 58 57 54 50 44
74 75 75 76 78 81 85 88 90 91 91 92 92 92 93 93 93 94 94 94 94 94 94 95 95 96 97 97 97 98 99 100 100 100 100 99 97 95 95 95 95 95 95 94 94 92 90 90 89 89 90 93 95 97 98 98 98 98 97 95 94 91 85 78 73 68 65 63 63 65 66 66 65 65 65 64 63 63 63 63 62 61 60 57 52 47
75 75 75 76 77 79 82 85 87 89 90 90 91 92 92 93 93 93 94 94 94 94 95 95 95 96 96 96 97 97 98 99 99 100 100 100 100 99 97 97 96 96 95 94 94 92 91 92 92 93 93 94 95 96 98 98 97 96 94 95 96 95 90 84 79 76 73 72 71 71 72 72 71 70 69 68 68 67 67 66 63 60 57 54 49 46
76 75 75 76 77 78 80 81 83 85 87 88 90 91 92 93 93 93 93 93 93 94 94 94 94 95 95 95 96 96 97 97 98 98 99 100 100 100 99 99 98 97 96 94 93 93 93 93 94 94 94 94 95 96 97 98 98 97 95 97 97 96 93 90 87 83 81 79 77 75 74 74 73 72 71 70 69 67 65 62 59 55 50 47 44 41
77 76 75 75 76 77 78 79 81 83 85 87 89 90 91 92 92 92 92 93 93 94 94 94 94 93 94 94 95 95 95 96 96 97 98 99 99 99 100 100 99 97 95 95 96 97 97 97 97 97 97 97 97 97 97 97 98 98 98 97 95 92 91 90 88 86 84 82 80 78 76 75 74 73 72 71 69 65 62 57 53 49 46 43 40 38
77 76 75 74 75 75 77 78 80 81 83 85 88 89 90 90 91 91 92 92 92 93 93 92 92 91 91 93 93 94 94 95 95 96 97 97 98 98 99 100 99 98 96 96 97 99 99 98 98 98 98 98 98 98 97 97 97 97 97 95 92 90 90 88 85 83 82 82 81 80 79 78 77 76 74 70 67 64 60 56 52 48 43 41 38 36
78 76 75 74 74 75 77 78 79 80 81 84 86 88 89 89 90 90 91 91 91 92 92 91 90 89 89 91 92 93 94 94 95 95 96 96 97 98 98 99 99 99 98 98 98 98 98 98 98 98 98 97 97 97 96 97 97 97 97 96 94 93 92 88 85 82 80 81 81 81 81 80 78 76 72 68 64 61 57 53 50 46 44 40 38 35
79 78 76 75 74 75 77 77 78 78 80 82 84 86 88 88 89 89 90 90 90 91 91 90 89 88 89 90 90 91 91 93 94 94 95 95 96 96 97 97 98 98 98 99 98 98 98 98 98 98 98 97 97 97 97 97 97 97 97 96 95 93 90 88 85 83 82 82 82 81 79 76 73 69 66 65 64 61 58 53 49 46 44 41 39 36
80 79 78 76 75 76 76 77 77 78 79 80 82 85 87 88 88 88 89 89 89 89 89 88 88 89 90 90 90 90 90 92 93 94 94 94 95 95 96 96 96 97 97 97 97 97 97 97 97 97 96 95 96 96 97 96 96 96 96 95 93 92 90 89 87 85 84 83 81 79 75 71 67 65 65 64 63 62 59 55 52 50 47 44 41 39
81 80 80 78 77 77 77 77 78 78 79 80 81 83 85 86 87 87 87 88 88 87 87 87 87 88 89 90 90 90 90 91 92 93 94 94 94 94 95 95 95 96 96 96 96 96 96 96 96 95 93 93 94 95 96 96 95 95 95 93 91 90 89 88 86 85 83 81 77 73 69 66 64 63 63 62 61 59 58 57 55 53 50 47 45 42
80 80 81 79 78 77 78 78 78 78 79 80 81 81 82 84 85 85 86 87 87 87 86 86 86 86 87 89 90 90 90 90 91 92 93 94 94 94 95 95 95 95 95 95 95 95 95 95 95 95 94 93 94 94 95 95 94 93 92 91 89 88 87 86 84 82 79 75 71 66 62 61 60 60 59 58 57 57 57 57 56 56 54 52 49 47
80 80 80 80 79 78 78 78 78 78 79 79 80 81 81 81 82 83 84 85 85 86 86 86 86 86 87 88 89 89 89 89 90 91 92 93 93 93 94 94 94 94 94 94 93 93 92 93 93 94 94 93 93 93 94 94 93 92 90 89 87 86 84 83 81 78 75 71 66 62 58 57 56 55 54 54 54 55 54 54 54 55 57 57 56 55
79 79 80 80 79 78 78 78 78 78 79 79 80 80 81 81 81 81 81 82 83 84 85 86 86 86 87 88 89 90 89 89 90 90 91 91 91 91 91 92 92 91 90 90 89 88 88 88 89 90 91 91 91 91 90 90 90 89 88 86 84 82 81 79 77 74 71 67 63 59 56 54 52 50 49 50 51 52 52 52 53 54 57 58 58 58
Wind_Speed
25 25 24 23 23 22 20 20 19 18 18 17 16 15 16 18 21 22 25 28 30 30 30 30 29 28 28 29 29 28 27 26 25 25 26 27 28 30 32 34 36 36 37 36 36 35 36 37 37 38 39 40 40 40 40 40 38 36 35 35 36 37 38 38 38 37 34 29 26 27 30 33 36 37 38 38 37 37 36 35 34 33 32 31 29 28
24 24 24 23 22 22 22 21 19 18 17 18 18 18 17 18 20 21 22 26 28 29 29 29 28 27 27 28 29 28 27 27 26 26 26 27 28 30 32 33 35 36 37 37 37 37 37 38 38 38 39 40 41 41 41 39 37 35 33 33 34 36 38 39 39 37 32 28 29 31 35 38 39 39 39 38 37 35 34 33 32 31 31 29 27 25
21 22 22 22 21 21 21 21 19 18 17 18 18 18 18 18 19 20 20 22 24 26 26 26 25 25 25 26 26 26 26 27 27 27 27 28 29 30 32 33 34 35 36 36 37 38 38 39 39 39 39 40 41 40 39 37 35 34 32 31 31 33 36 39 40 37 32 31 33 36 39 40 40 39 38 36 35 33 32 31 30 30 29 27 26 24
21 21 22 21 20 20 21 21 20 18 18 17 17 18 18 18 17 18 18 20 21 22 22 23 23 23 23 24 24 24 25 26 27 28 28 28 28 30 32 33 34 34 35 35 36 37 38 39 40 40 39 39 39 38 36 34 32 31 30 30 30 32 35 40 40 37 33 35 38 40 41 41 39 38 36 34 33 31 30 29 28 27 27 26 25 24
21 21 22 20 20 20 21 20 19 17 16 16 17 17 17 17 17 17 17 18 20 21 21 22 22 22 23 23 23 24 24 25 26 27 27 27 28 29 31 32 33 33 33 34 34 35 36 37 39 39 39 38 37 35 33 30 28 28 28 29 30 32 35 39 40 37 37 39 42 43 42 40 38 36 34 32 31 30 29 28 27 27 27 27 27 27
21 22 22 21 20 20 20 19 17 15 14 14 15 15 16 17 16 16 15 17 19 21 23 24 24 23 23 22 22 23 24 25 25 26 27 27 28 28 29 30 30 31 31 32 32 33 34 35 37 38 38 37 35 32 28 26 25 25 27 29 31 33 35 38 40 41 42 43 44 43 41 39 37 35 33 32 31 30 29 29 29 29 29 29 29 30
20 21 22 22 22 22 21 19 17 15 13 12 12 12 13 15 15 15 15 16 18 21 23 24 23 22 20 19 19 21 23 24 25 26 27 28 29 29 29 29 29 29 29 30 30 31 32 32 34 35 36 35 31 28 25 23 23 25 27 30 32 33 35 38 42 45 47 46 44 42 40 38 36 35 34 33 32 31 31 31 31 31 31 31 31 31
19 20 22 23 23 22 21 19 17 15 14 12 11 10 10 12 14 15 14 14 16 19 21 21 21 19 18 16 15 17 21 23 25 26 27 29 30 30 30 29 29 29 29 29 29 30 30 31 32 32 33 30 28 26 24 23 23 26 29 31 33 34 35 38 43 48 50 47 44 41 39 37 36 35 34 34 34 33 33 32 32 31 31 31 31 30
19 20 21 23 22 21 20 19 18 16 15 14 13 11 9 9 11 14 15 14 14 15 16 17 18 18 16 14 14 17 21 23 24 25 26 26 28 30 30 30 30 30 30 30 30 30 31 31 31 31 29 27 26 25 24 25 26 29 31 33 34 36 39 42 46 49 49 46 43 40 39 38 37 36 36 36 35 34 34 33 33 32 32 31 31 30
20 20 21 22 22 21 18 18 17 16 16 15 15 14 11 9 9 11 13 14 13 12 12 14 16 16 16 15 18 21 23 23 23 23 23 23 24 27 29 30 31 31 31 31 31 32 32 32 31 29 27 26 26 26 27 29 31 33 35 37 39 42 44 45 46 46 45 44 42 41 40 39 38 38 37 37 36 35 35 34 34 33 32 32 31 30
17 19 19 20 20 19 17 16 15 15 15 15 15 15 14 12 10 9 9 11 12 11 11 13 15 16 17 19 21 24 26 27 26 24 22 21 21 23 25 27 29 31 32 33 33 33 32 32 31 29 27 28 29 30 33 35 37 39 40 42 44 44 44 44 43 43 43 43 43 42 41 40 39 39 38 37 37 36 36 35 34 34 33 32 31 30
15 16 16 16 15 14 12 12 12 13 12 12 11 11 12 13 13 11 10 9 10 11 12 13 14 17 20 21 22 23 26 28 28 27 26 25 24 23 22 23 24 27 30 32 32 32 32 31 30 29 30 32 34 36 38 39 40 42 43 44 44 43 43 43 43 43 43 43 43 42 42 41 40 39 38 38 37 37 36 36 35 34 33 32 31 30
15 15 14 13 12 10 8 8 9 10 11 11 10 10 10 12 14 14 13 12 11 12 13 13 14 17 20 22 22 22 24 25 27 28 28 28 28 28 27 27 25 25 27 29 30 31 32 31 31 32 34 37 40 41 42 42 43 44 44 44 43 43 43 43 43 43 42 42 42 42 41 41 40 39 39 38 38 37 37 36 35 34 33 32 30 29
14 13 11 9 8 8 8 9 9 10 10 11 12 13 13 13 14 14 14 14 14 14 15 13 14 17 19 21 22 22 23 24 25 25 25 24 25 27 29 30 30 30 31 32 34 35 35 35 35 36 39 43 44 44 44 44 45 45 44 44 43 43 43 43 43 42 41 41 41 41 40 40 40 39 39 38 38 37 36 35 34 33 32 31 30 29
8 7 5 5 6 8 10 11 12 12 13 13 14 15 15 14 14 14 14 13 15 16 16 12 11 14 17 19 22 24 25 25 25 24 22 20 20 24 27 29 31 32 33 34 36 38 40 41 42 43 45 46 46 46 46 45 45 44 44 43 43 42 42 42 41 41 40 40 40 40 40 40 39 39 38 37 37 36 36 35 34 33 32 31 30 29
7 6 4 3 3 4 6 8 10 12 13 13 15 16 15 14 14 14 14 14 16 17 15 10 7 8 13 19 24 26 27 26 26 25 23 20 18 20 25 27 28 29 31 32 33 36 40 43 45 47 48 48 47 47 46 45 44 43 42 41 40 40 40 39 39 39 39 39 39 38 38 38 38 38 37 36 36 35 34 34 33 32 32 31 30 29
11 10 8 7 7 8 11 11 11 11 11 10 11 13 15 16 15 15 15 15 16 16 13 10 5 2 6 15 23 27 28 26 26 26 25 22 20 19 22 24 25 25 28 29 31 34 37 41 44 47 48 48 48 47 46 45 43 42 41 41 40 40 39 39 39 39 39 39 38 38 37 37 37 37 36 36 35 35 34 34 33 32 32 31 30 29
11 11 10 8 8 9 11 13 14 15 15 13 11 10 11 15 16 17 17 17 16 15 13 12 8 4 3 8 16 25 29 27 26 26 26 24 22 22 22 23 24 24 25 26 28 32 36 39 43 45 48 49 49 48 47 46 45 44 43 43 42 42 42 42 42 42 41 41 40 40 39 38 38 37 37 36 36 35 34 34 33 32 32 31 30 29
12 13 12 10 10 10 11 12 14 15 16 16 14 13 11 11 15 17 17 18 17 15 13 12 11 11 10 11 18 26 30 28 27 26 25 24 24 25 25 24 24 23 23 23 26 30 34 37 41 44 46 47 47 47 47 46 46 46 45 45 45 45 44 44 44 44 43 43 42 41 40 39 39 38 37 37 36 35 35 34 33 32 31 30 29 28
13 14 14 13 12 12 12 13 15 16 16 17 15 13 12 12 12 15 16 18 17 16 14 12 12 13 14 16 21 27 31 30 28 26 24 23 24 26 27 26 25 24 23 23 25 29 32 35 38 41 42 43 43 43 43 44 44 44 44 45 45 44 44 45 45 44 43 43 42 41 40 39 38 37 37 36 36 35 34 33 32 31 30 29 28 27
13 15 17 16 14 12 12 15 18 19 18 17 15 13 11 11 11 12 15 17 17 16 14 13 13 14 16 19 22 27 31 31 28 24 22 21 22 25 28 28 28 26 25 25 27 29 31 34 36 37 38 39 39 39 39 40 40 41 41 41 41 41 42 42 43 42 42 41 40 39 38 37 36 36 35 34 33 32 31 31 30 29 28 27 26 24
15 16 18 19 17 14 14 17 19 20 18 16 14 12 11 10 10 11 15 17 17 16 15 14 13 14 17 21 25 28 30 31 28 25 21 18 17 21 27 29 28 26 25 26 29 31 32 33 34 35 35 36 36 36 37 37 38 39 40 40 40 40 40 40 40 40 40 39 38 37 36 35 34 33 33 32 31 29 28 27 27 26 26 25 23 22
18 18 20 21 20 19 18 19 21 22 19 16 13 12 12 12 12 13 16 18 17 16 15 15 14 15 19 23 26 27 28 29 30 29 24 15 13 19 26 30 29 26 24 27 30 33 33 33 34 34 34 33 33 33 34 35 36 38 39 40 40 40 40 39 39 38 37 36 35 34 33 33 33 32 32 31 30 29 28 27 26 26 25 24 22 21
22 22 22 23 23 22 22 22 23 24 22 18 13 10 9 10 11 12 16 19 20 18 17 18 18 18 19 23 25 25 25 26 28 27 24 17 16 20 26 30 30 28 27 28 31 32 33 33 34 34 33 33 33 32 32 32 33 34 36 37 38 38 38 37 36 35 34 32 31 31 31 32 32 32 33 33 32 32 31 30 28 27 25 24 22 21
24 23 23 23 23 23 24 24 24 25 24 21 15 9 4 4 5 8 15 20 21 20 20 21 19 16 16 19 21 23 23 24 26 27 25 21 18 21 25 30 30 28 28 30 33 35 35 35 35 35 34 33 33 33 32 32 32 32 33 34 34 34 34 33 33 32 31 31 31 31 33 33 34 35 35 35 35 35 33 32 30 28 26 24 22 20
24 24 23 23 22 23 23 24 24 25 24 23 19 12 4 0 6 11 16 17 20 22 22 18 13 12 13 15 17 19 21 22 24 27 29 26 22 20 23 27 29 30 30 33 35 36 36 35 35 35 36 35 34 34 33 33 32 32 32 32 32 33 32 32 32 32 33 33 34 35 36 36 37 37 36 36 36 35 33 32 30 28 26 24 22 20
24 24 24 24 23 24 24 25 26 26 26 25 22 16 9 4 8 13 14 14 16 20 19 12 7 7 10 12 15 19 22 21 23 26 30 30 25 20 21 26 31 34 34 34 35 36 36 34 33 33 36 37 36 35 35 34 34 33 33 33 34 34 34 34 34 35 36 37 37 38 37 37 36 36 35 34 33 32 31 29 27 26 24 23 21 19
25 26 26 26 26 26 26 27 28 28 28 27 26 22 17 11 11 12 10 9 11 16 18 12 6 5 7 11 15 19 23 21 21 24 29 29 24 20 22 28 34 36 34 32 34 36 34 32 31 32 35 37 38 37 37 36 36 35 35 35 36 36 37 37 37 37 37 37 37 37 36 35 35 34 33 31 30 29 27 26 25 23 22 21 20 18
27 28 28 28 28 28 28 29 29 29 29 29 29 27 23 19 16 14 10 9 11 13 16 14 11 9 10 14 16 18 20 20 21 24 27 25 23 22 25 29 33 35 33 30 30 32 31 30 30 32 35 37 37 37 37 37 36 35 35 36 36 37 37 36 36 36 35 35 35 34 34 33 32 31 30 29 27 26 25 24 22 21 20 19 18 16
29 29 30 30 30 30 30 31 31 31 30 30 30 29 27 25 22 19 15 13 12 12 16 14 12 12 13 14 12 11 12 16 20 25 27 25 23 23 27 28 30 32 31 27 19 16 19 24 29 32 33 35 35 36 36 36 36 35 34 34 34 34 34 34 34 33 33 32 32 32 31 30 30 29 28 26 25 24 23 22 21 20 19 17 16 14
28 29 30 30 31 31 32 32 32 32 32 31 31 30 28 27 26 24 21 18 15 14 16 15 12 12 14 11 7 3 4 11 18 24 26 26 25 25 28 27 28 30 31 28 15 5 7 13 22 29 32 33 34 35 35 35 35 34 34 33 32 32 32 32 32 31 31 30 30 29 29 28 28 27 26 24 23 22 21 20 19 18 17 16 15 13
26 27 27 28 30 31 32 32 32 32 32 32 32 31 30 29 28 28 27 24 21 19 17 14 10 8 8 8 6 4 3 10 18 23 25 25 25 27 29 29 28 28 29 30 25 15 7 6 14 26 32 33 33 33 33 33 33 33 33 33 32 31 31 31 30 30 29 28 28 27 27 27 26 25 24 23 22 21 20 19 18 17 16 15 13 12
25 26 27 27 29 30 30 31 31 31 31 31 32 32 31 30 30 31 31 28 25 23 19 15 11 8 8 10 10 9 8 12 17 22 24 24 24 25 27 29 29 28 27 27 27 24 17 14 17 23 29 31 32 31 32 32 33 33 33 33 32 31 30 30 30 29 28 27 26 26 26 25 25 24 23 22 21 20 19 18 16 15 14 13 12 11
24 25 26 27 28 28 29 30 30 30 29 30 30 30 30 30 31 32 32 31 29 27 24 20 17 14 13 13 13 12 12 13 16 20 23 23 23 24 26 29 29 28 27 25 24 25 24 24 23 23 24 28 31 31 31 31 31 32 33 33 32 31 31 31 30 29 28 28 27 26 26 25 24 23 22 22 21 20 19 17 16 15 13 12 11 10
23 24 26 26 27 27 28 29 29 29 29 29 29 29 29 30 31 32 32 32 32 30 28 25 22 19 16 13 12 12 12 12 15 19 21 22 23 25 26 27 29 29 28 27 26 25 23 24 26 26 23 24 26 28 29 29 30 31 32 33 32 32 31 31 31 30 29 28 27 27 26 25 24 23 22 21 20 19 18 17 16 14 13 11 9 8
22 23 24 25 25 25 26 27 27 28 28 28 28 29 29 29 30 31 32 32 32 31 30 29 26 23 20 18 16 14 12 11 13 17 20 22 24 24 24 25 28 30 29 29 29 28 24 23 24 27 25 22 20 21 24 27 29 29 30 30 31 31 31 31 30 30 29 28 27 26 26 25 24 23 22 20 19 18 17 16 14 13 12 10 9 7
21 22 23 24 24 24 24 25 26 26 27 27 27 27 27 28 29 30 31 32 32 32 31 30 29 27 25 23 21 19 16 13 14 16 20 22 24 24 23 24 27 30 29 28 29 29 26 23 23 24 23 21 18 18 20 25 27 28 28 28 28 29 28 28 29 29 28 28 27 26 25 24 23 22 21 20 18 17 16 14 13 12 10 9 8 7
22 22 22 23 23 23 23 24 24 25 26 25 25 25 25 25 27 28 29 30 32 32 31 31 30 29 28 26 25 22 20 17 16 17 19 22 24 25 25 25 26 28 29 29 29 29 28 24 20 17 18 19 20 21 22 24 25 25 25 26 27 27 26 26 27 27 27 26 25 24 23 22 21 21 20 18 17 16 15 14 12 11 10 9 8 8
21 21 21 22 23 23 23 23 23 24 25 24 24 23 23 24 25 27 28 29 30 31 31 31 31 30 30 29 27 25 23 20 19 18 20 22 24 26 27 26 26 26 28 29 30 30 29 27 24 21 19 19 19 20 22 23 24 25 26 25 25 24 23 23 24 24 25 24 23 22 20 19 18 18 17 16 15 14 14 13 11 10 9 8 8 7
21 21 21 21 22 22 22 22 23 23 24 24 24 23 24 24 25 27 28 28 29 29 30 30 31 31 31 31 30 28 26 24 22 21 21 22 24 26 27 27 27 27 27 27 26 26 26 26 26 26 27 24 22 21 21 21 23 25 26 23 20 19 20 20 21 21 22 22 21 20 18 17 16 16 15 15 14 13 12 11 10 9 7 7 7 7
20 20 21 21 21 21 22 22 23 23 24 24 25 25 26 26 25 25 27 28 29 29 28 28 30 31 32 33 33 32 30 27 25 23 23 23 23 25 27 28 28 27 27 25 24 24 25 25 26 26 27 26 26 24 22 21 21 23 23 21 20 20 20 19 19 19 19 19 19 18 18 17 16 15 14 13 12 11 10 8 8 7 6 5 5 5
20 20 20 20 21 21 22 23 24 24 25 25 26 27 27 26 25 25 25 26 27 28 27 27 27 28 31 32 33 34 33 31 28 26 24 24 25 26 27 28 27 27 26 26 25 26 26 27 26 26 26 26 25 23 21 20 21 21 22 22 23 22 20 18 17 18 18 18 18 17 17 17 16 14 13 11 10 9 7 6 5 5 4 3 3 3
19 19 20 20 20 21 22 23 24 25 26 27 27 27 27 26 25 24 24 25 25 26 25 25 25 25 26 28 30 32 33 33 31 29 26 25 25 26 28 28 28 27 27 27 27 27 26 27 26 25 25 26 26 24 22 20 20 20 21 23 23 21 16 16 17 18 18 18 17 17 16 16 15 13 12 10 9 7 6 5 4 4 3 3 3 2
19 19 20 20 21 22 23 23 24 24 25 26 26 26 26 26 26 24 24 23 24 24 24 23 23 24 25 25 25 27 29 31 32 31 29 27 25 26 27 28 28 28 28 29 28 28 28 27 26 25 25 25 24 23 22 21 20 20 20 21 21 19 17 17 19 19 19 18 17 16 15 14 13 11 10 9 8 7 5 5 4 4 3 3 3 3
19 20 20 21 21 22 22 23 23 24 24 25 25 25 25 26 26 25 24 23 23 23 23 22 22 22 22 22 22 23 25 28 30 31 30 29 27 26 26 26 27 27 27 28 28 29 28 27 26 25 25 24 23 22 22 21 20 19 18 18 19 19 20 20 20 20 19 18 17 15 13 11 10 10 9 8 7 6 5 4 4 3 3 3 2 2
20 20 20 21 21 22 22 22 22 23 23 23 24 24 25 25 25 24 24 23 22 22 22 23 23 22 20 20 20 22 23 24 26 28 29 30 29 29 28 28 27 27 27 27 27 28 28 28 27 27 26 24 23 21 21 21 20 19 19 19 20 20 20 19 18 18 18 17 16 14 12 10 9 9 9 8 6 5 4 4 3 3 2 2 2 1
20 20 20 21 21 22 22 22 22 22 22 23 23 23 24 24 24 24 24 23 22 21 21 23 23 23 21 20 20 20 21 21 22 24 25 27 29 30 30 30 30 30 30 30 29 28 27 26 26 26 25 24 22 20 19 20 20 20 19 20 20 20 19 18 16 16 15 15 14 13 11 10 10 10 9 8 7 6 5 4 3 2 1 1 1 1
20 20 20 20 21 21 22 22 22 22 21 22 22 23 23 23 23 23 23 23 22 21 21 21 22 22 22 21 21 20 20 20 20 21 22 23 25 27 29 30 31 32 32 33 33 32 30 28 26 25 24 23 21 20 19 20 20 20 20 20 20 20 19 18 16 14 13 13 13 12 11 10 11 11 10 9 8 7 5 4 3 2 1 1 1 1
20 20 19 20 20 20 21 21 21 21 20 21 21 22 23 23 23 22 22 22 21 21 21 21 20 21 21 20 21 21 21 20 20 20 20 20 21 22 24 26 28 29 31 33 33 34 33 32 30 27 24 23 21 20 20 20 20 21 21 21 21 20 20 18 15 14 13 13 12 11 11 10 10 10 9 9 9 8 6 5 3 2 1 0 1 1
19 19 19 19 20 20 20 20 20 20 19 20 20 20 22 22 23 22 22 21 21 21 20 20 20 20 19 19 20 20 21 20 20 20 19 19 18 18 18 20 22 23 25 26 28 29 31 31 30 29 26 23 21 20 20 20 21 21 21 20 20 20 19 17 15 13 12 12 11 11 10 10 9 8 8 9 9 8 7 5 4 3 2 1 0 1
19 19 19 19 19 19 19 19 19 19 19 19 19 19 20 21 21 22 21 21 21 20 20 20 20 19 19 18 19 20 20 21 20 20 19 18 17 17 16 15 16 17 17 18 19 19 20 20 21 22 24 22 20 19 19 20 21 21 20 19 19 18 17 16 14 12 11 11 10 10 9 9 8 7 7 7 8 8 7 6 6 5 4 2 1 1
Wind_Direction
265 269 274 277 281 282 282 285 288 292 294 295 293 282 265 253 244 236 229 225 224 224 224 224 225 227 229 231 232 232 231 232 233 233 232 230 227 224 222 221 220 220 221 221 220 219 219 219 220 221 221 221 220 218 215 212 209 206 204 204 205 206 207 206 206 205 202 194 183 175 171 167 163 161 160 159 158 157 157 159 160 160 159 159 160 162
263 267 270 272 273 274 275 277 280 284 288 291 291 287 277 263 250 239 232 229 228 229 229 230 230 231 232 233 232 231 230 231 232 233 233 231 229 226 223 221 220 220 220 221 221 220 220 220 221 221 222 222 221 218 214 211 209 207 204 203 202 203 205 207 208 206 199 184 173 169 166 162 160 158 158 159 159 159 159 160 161 161 161 161 162 163
263 265 266 266 267 268 269 271 274 277 279 282 285 285 281 268 253 241 235 233 233 233 234 234 234 235 235 235 234 232 232 232 234 235 234 232 230 226 224 222 221 220 220 220 221 221 220 220 221 221 222 222 220 217 214 212 210 209 207 206 204 202 203 205 207 204 192 176 169 167 164 161 159 159 160 161 162 162 163 163 163 163 163 163 164 166
259 262 262 264 264 264 265 267 270 272 273 273 277 281 283 273 257 243 236 235 235 235 235 235 234 234 235 237 238 238 237 237 237 237 236 234 231 227 224 222 221 220 219 219 220 220 221 220 221 222 223 223 220 217 214 213 212 211 210 209 207 204 202 203 204 198 182 171 167 165 162 161 161 162 163 164 166 166 166 166 165 164 164 164 165 166
254 256 259 261 262 262 262 263 264 264 265 265 268 274 280 275 262 249 241 235 233 232 232 231 230 229 229 233 236 239 240 239 239 239 238 236 232 228 225 222 220 219 218 218 219 219 220 220 221 222 224 224 221 218 215 213 212 212 211 209 206 202 199 199 197 188 173 168 165 163 161 162 162 164 164 165 167 168 166 165 163 162 162 161 161 160
251 253 256 257 258 258 259 259 256 254 255 257 261 265 271 271 266 258 250 240 235 231 228 226 224 222 222 225 230 234 235 235 234 235 234 234 232 229 225 222 220 218 217 217 217 218 220 220 220 221 224 225 223 218 214 211 211 210 208 206 203 199 194 191 185 176 166 164 162 161 160 161 162 164 165 165 165 165 161 160 159 158 157 156 155 153
251 253 254 255 255 255 255 253 249 247 248 252 256 258 260 263 265 263 258 249 241 235 231 226 222 221 221 224 228 228 226 224 224 224 225 226 227 227 225 223 220 217 216 215 216 217 219 220 220 221 223 224 221 214 210 207 207 207 205 204 202 198 191 182 174 167 162 160 159 159 159 160 162 163 165 164 162 160 157 156 155 154 153 151 150 148
252 253 253 252 252 253 252 248 244 244 247 254 258 257 255 257 262 265 263 254 245 238 234 230 227 227 228 228 223 214 210 209 209 210 213 216 219 221 222 222 220 218 216 215 215 216 218 219 219 220 221 218 213 208 204 200 199 199 199 199 197 192 184 175 166 161 158 157 157 158 159 161 162 163 164 163 161 158 156 154 152 150 148 147 146 145
249 251 251 249 249 249 248 245 244 245 249 255 260 259 253 252 260 266 266 258 247 237 231 227 226 226 224 212 190 179 181 186 190 194 199 204 209 213 216 218 218 218 216 214 213 214 216 217 218 217 214 208 203 199 194 189 187 186 185 184 180 173 166 161 156 153 154 155 157 158 161 162 163 163 162 161 159 156 153 151 149 147 145 144 143 142
247 247 247 246 245 246 246 246 246 247 250 255 259 261 255 246 249 259 265 261 250 236 224 218 213 208 199 177 156 147 149 156 165 173 179 187 194 202 207 212 214 215 214 213 212 211 211 212 213 210 202 196 190 185 180 176 173 171 169 165 160 155 152 150 149 150 152 154 157 159 161 162 162 161 159 157 155 152 150 148 146 144 143 142 141 140
244 243 242 242 242 244 247 248 249 249 250 252 256 258 257 247 237 237 250 256 249 234 219 209 199 186 170 154 139 130 128 129 134 141 149 159 170 182 192 200 206 209 210 209 207 205 204 205 204 200 191 185 178 173 170 167 164 161 158 154 151 149 149 149 150 151 153 154 156 158 158 158 157 156 154 152 150 148 146 144 143 142 141 140 139 138
240 237 234 234 237 242 249 253 252 248 245 242 244 246 246 242 234 227 227 240 239 226 213 203 188 170 154 145 136 128 123 120 119 119 122 126 134 144 156 169 182 192 198 201 201 198 196 196 194 189 182 175 169 166 164 162 158 154 152 150 149 149 150 151 151 151 152 152 153 153 153 153 152 150 149 147 146 145 143 142 141 141 140 139 138 136
236 232 229 230 233 240 252 258 256 246 234 228 225 228 231 233 230 224 221 229 229 218 206 195 177 160 149 144 140 133 127 122 119 117 115 113 113 115 121 129 140 155 168 176 180 182 184 184 181 176 172 165 162 160 159 157 154 151 150 150 150 151 151 152 151 151 150 149 148 148 148 147 146 145 145 144 143 142 142 141 140 140 139 138 137 136
230 230 232 236 240 246 251 257 257 249 236 228 226 229 233 233 226 218 213 219 222 216 204 190 170 157 151 148 143 138 131 126 122 120 118 114 111 109 109 112 117 126 137 143 148 155 162 165 165 162 160 156 155 155 154 153 151 151 151 151 151 151 151 151 150 149 148 146 145 145 144 143 143 142 142 141 141 141 141 140 140 140 139 138 137 136
243 247 251 249 249 251 251 252 254 251 246 237 232 232 233 230 222 210 201 205 212 213 207 198 176 158 153 152 147 140 134 129 125 123 122 120 117 112 109 107 109 114 120 125 130 137 144 148 149 149 150 150 149 150 150 151 151 151 151 150 150 150 150 149 148 147 146 145 144 143 143 142 141 141 140 140 140 140 140 140 140 140 139 138 137 137
357 1 358 346 324 308 300 289 279 273 268 255 241 233 227 221 214 205 197 197 204 207 204 194 173 156 151 149 147 143 137 131 127 125 124 124 124 120 113 108 107 108 111 115 120 126 132 136 139 142 144 146 148 149 150 151 151 151 151 150 150 150 149 148 147 146 146 145 145 144 143 142 142 141 141 141 141 141 141 141 141 140 140 139 139 139
15 18 19 19 16 11 7 360 347 333 322 301 273 248 230 219 210 203 196 195 199 202 195 185 178 152 145 142 144 144 141 134 129 126 124 125 128 128 121 113 108 107 108 110 113 118 123 127 132 136 140 144 147 149 150 151 151 151 151 151 151 150 150 149 148 147 147 147 147 147 146 144 144 143 143 143 143 143 143 143 143 142 142 142 142 143
18 19 18 15 10 4 1 358 353 349 346 337 322 295 256 229 215 204 195 192 196 198 193 188 185 176 153 144 144 145 145 138 131 128 125 125 129 131 127 120 114 111 110 110 112 116 119 123 128 133 137 142 146 147 148 148 148 149 149 149 149 148 148 147 147 147 147 147 147 147 146 146 145 145 145 145 146 146 146 146 146 146 146 146 147 148
19 19 16 10 1 354 352 352 350 347 342 335 328 318 301 255 224 207 193 189 191 195 192 190 184 175 158 149 146 146 146 141 135 130 126 127 130 132 130 125 121 118 117 117 118 119 121 124 129 133 138 142 144 144 145 145 145 145 145 145 144 144 144 144 144 145 145 145 145 145 145 145 146 146 146 146 147 148 148 149 149 149 150 150 151 152
20 20 15 8 359 352 351 352 349 344 338 331 323 313 300 277 242 213 194 187 187 189 188 187 186 178 159 148 145 145 145 142 136 130 126 124 127 131 132 130 126 123 124 126 128 128 127 128 131 136 140 142 144 144 144 143 142 142 142 141 141 141 141 141 141 141 142 142 142 143 144 144 145 146 146 147 148 149 150 150 151 152 152 153 154 154
20 17 13 10 4 356 351 350 350 347 341 333 323 311 295 281 253 220 195 185 182 181 182 191 193 182 161 150 146 145 143 141 136 129 125 121 123 128 133 132 129 126 125 130 135 137 135 134 135 138 141 143 145 145 145 145 144 143 143 143 143 143 143 142 141 141 141 141 141 142 143 144 145 146 147 148 149 150 151 152 153 153 154 155 156 156
19 15 13 14 11 5 357 355 354 353 349 341 328 312 295 282 261 229 201 187 180 178 178 186 191 182 164 153 148 144 142 140 136 130 124 118 117 122 129 131 128 123 121 128 136 141 140 139 139 140 143 144 145 147 148 148 148 147 147 147 147 148 147 146 145 144 144 145 145 146 147 148 149 149 150 150 151 153 154 155 156 157 157 158 158 157
20 17 16 16 15 12 7 4 4 3 358 351 334 312 291 277 267 247 215 198 187 177 170 174 178 173 162 154 149 144 141 138 134 129 124 119 118 121 125 127 123 119 120 126 133 139 142 142 143 145 147 148 149 150 151 152 152 153 153 153 153 153 153 152 152 152 152 152 153 154 154 155 155 154 154 154 155 156 158 160 161 161 161 161 160 158
22 21 20 19 18 16 15 13 11 9 6 359 344 317 286 267 259 243 217 199 188 176 163 161 159 157 154 150 146 143 141 138 133 128 123 120 121 123 123 122 119 116 119 125 130 136 141 143 146 149 151 152 153 154 155 156 157 158 159 159 159 159 159 159 159 159 159 159 159 159 159 159 158 158 158 158 159 160 162 163 164 164 164 163 161 158
25 24 23 22 22 21 20 19 18 16 13 8 360 342 292 253 223 202 190 184 179 169 155 147 144 145 146 143 140 141 142 139 134 128 123 121 121 121 122 121 119 117 117 122 127 132 135 139 143 147 151 153 156 157 158 159 160 161 161 161 162 162 161 161 161 160 159 158 158 157 157 157 157 158 158 159 160 162 163 164 165 165 164 162 160 158
28 27 27 27 27 27 26 24 23 23 21 18 12 6 359 119 167 165 160 160 158 152 144 140 141 147 146 140 138 139 142 140 135 130 127 126 123 121 122 122 119 116 115 117 121 125 128 131 135 140 145 150 154 156 157 157 157 157 158 159 159 159 158 157 156 155 154 154 153 153 154 154 155 156 157 158 158 159 161 162 163 162 161 160 158 156
30 29 30 30 30 30 30 29 29 29 29 26 23 21 31 80 134 138 130 129 137 142 143 141 141 145 145 138 138 140 142 140 137 134 132 129 126 123 123 122 118 114 110 111 114 118 120 122 126 131 136 142 146 150 151 151 151 151 152 152 153 153 152 152 151 151 151 151 151 152 153 154 155 155 156 156 157 158 159 160 160 160 159 158 157 155
30 30 30 31 32 33 33 33 33 33 32 31 30 31 40 65 85 84 81 103 130 142 144 142 141 144 146 142 138 138 140 140 141 140 137 131 127 127 127 123 119 114 109 108 110 113 115 116 118 123 128 133 137 140 142 144 144 145 146 147 147 147 148 148 148 148 149 150 151 152 153 154 155 156 157 157 158 158 159 159 158 158 158 158 156 155
30 31 32 32 32 34 35 35 35 35 35 34 31 30 35 45 50 52 63 103 130 142 144 141 141 143 141 137 131 129 132 136 140 141 139 132 129 131 132 127 122 119 115 111 106 105 106 109 114 118 122 126 129 132 134 137 139 140 141 143 145 146 146 147 147 147 148 149 151 152 153 154 155 156 157 157 157 157 157 157 158 158 158 158 157 155
27 29 30 31 31 33 34 35 35 36 37 36 32 29 30 35 40 48 67 94 115 131 139 132 130 135 136 133 126 118 120 129 135 138 138 136 136 136 135 132 130 129 126 121 111 98 96 102 110 117 121 123 124 126 129 132 134 135 137 139 140 142 144 145 145 146 147 148 149 150 152 153 153 154 155 155 155 155 156 157 158 159 159 159 157 155
23 25 26 27 28 30 32 33 34 35 37 37 33 29 27 31 38 48 64 77 90 107 123 123 126 136 142 141 134 114 112 128 133 136 138 141 142 141 138 137 137 137 136 135 133 115 96 98 107 115 120 121 121 122 125 128 130 132 133 134 135 137 140 142 143 143 144 146 147 149 150 150 151 152 152 152 153 154 156 158 160 161 161 161 158 155
22 23 24 25 26 27 29 31 32 33 34 34 31 28 26 29 37 47 56 64 75 89 102 112 122 134 140 137 126 106 108 128 133 135 139 142 143 142 141 140 140 141 142 142 141 139 130 117 113 115 118 118 119 121 124 127 130 132 132 132 132 133 137 140 141 140 141 142 144 146 147 148 149 149 150 150 152 153 155 158 161 163 164 163 160 156
23 24 24 25 26 27 28 29 30 30 30 29 27 25 24 28 37 46 53 59 67 77 88 93 91 83 83 90 87 82 93 117 130 135 138 140 142 142 141 140 140 141 141 140 139 136 132 132 124 118 116 117 119 121 124 128 131 133 134 133 132 132 136 139 139 139 140 141 142 143 144 146 147 148 149 149 150 152 154 156 159 161 163 162 159 154
23 24 25 25 26 26 26 27 28 27 26 26 25 23 23 27 36 45 52 57 62 68 75 79 76 73 75 79 77 76 83 106 126 134 137 139 142 142 140 141 141 140 138 135 131 128 126 127 126 122 117 116 118 121 124 127 130 133 135 135 135 135 138 141 142 142 143 144 144 143 144 145 147 147 148 150 151 152 153 154 154 155 156 157 154 150
23 24 25 25 24 24 24 24 24 24 23 23 23 22 23 27 34 43 51 57 61 64 67 71 75 79 82 83 77 69 70 99 124 133 135 138 140 141 140 142 143 142 139 136 133 131 128 126 126 125 121 116 116 119 123 126 128 132 135 137 137 138 141 144 145 146 148 148 148 147 148 149 149 149 149 150 151 152 152 152 150 150 150 150 150 147
23 24 24 24 23 22 21 21 21 21 20 20 20 21 23 27 34 41 49 56 61 65 66 68 71 75 80 83 79 70 68 94 122 133 136 138 139 140 140 143 144 143 141 139 138 137 133 128 126 125 123 119 116 117 121 125 128 130 131 134 137 139 142 146 148 150 150 150 149 150 150 151 151 150 150 150 151 151 150 149 148 147 147 146 147 147
24 24 24 23 22 21 20 20 19 18 16 16 17 20 23 27 33 40 47 54 60 65 68 68 68 69 70 72 72 72 77 94 116 131 136 139 139 139 138 140 143 143 142 141 140 138 134 129 126 125 123 123 123 123 122 122 124 124 125 129 133 136 139 144 148 150 150 149 148 149 150 151 151 150 150 150 150 150 149 148 147 146 146 146 146 147
24 23 22 22 21 20 19 18 18 17 15 15 15 18 22 28 33 39 45 51 57 62 65 67 67 66 66 67 70 75 83 93 106 121 131 136 138 137 136 136 139 142 143 142 141 139 135 132 130 127 125 124 125 127 127 125 122 120 121 125 129 133 136 141 146 149 149 148 147 148 149 150 151 150 149 150 150 150 148 147 147 148 149 150 150 152
23 22 21 20 20 19 18 17 16 16 16 16 17 20 25 31 36 41 45 49 54 58 62 64 65 65 65 67 71 77 84 89 97 109 121 128 132 133 133 132 134 138 140 141 140 139 137 136 136 135 132 128 126 126 128 127 125 123 122 123 124 127 132 138 143 146 146 146 145 144 145 147 148 148 148 149 150 150 149 149 150 152 153 155 157 161
21 20 19 19 18 18 17 16 16 17 19 20 22 25 29 32 36 41 45 48 52 55 59 63 65 67 67 68 70 74 80 86 94 105 115 123 127 130 131 130 131 133 135 136 136 136 136 134 134 134 135 134 132 130 129 128 128 127 126 122 118 118 125 133 139 142 144 143 141 139 138 140 143 145 146 148 150 151 151 151 152 154 157 158 160 163
20 19 17 16 16 17 17 18 19 21 23 25 26 27 29 31 33 36 40 44 48 51 55 59 63 66 68 68 68 69 74 80 88 99 109 116 121 127 132 131 131 131 132 131 130 130 130 128 128 130 132 133 133 132 130 130 131 131 129 125 121 121 123 128 133 137 138 138 137 135 132 133 135 139 143 146 148 150 151 150 148 148 153 158 165 167
19 18 15 14 14 15 17 19 22 25 27 28 29 28 29 30 32 34 36 39 41 43 47 51 56 59 61 61 62 64 67 72 80 90 101 111 121 128 131 132 132 132 131 127 124 123 124 125 126 129 131 132 131 130 128 129 130 130 128 126 124 122 119 120 125 130 131 131 132 133 132 131 132 135 138 140 140 141 144 142 137 133 133 141 156 175
18 16 15 15 15 16 18 21 23 25 27 29 29 29 29 30 32 35 38 39 39 39 41 45 51 55 56 54 54 56 60 66 73 82 91 102 113 123 130 133 134 134 132 126 120 117 118 120 121 124 129 130 129 128 127 126 126 127 127 129 127 123 117 118 124 128 129 129 131 133 134 135 136 136 136 133 131 130 133 135 137 137 135 132 132 140
17 16 17 17 19 20 22 23 24 25 26 27 28 28 29 31 34 37 39 40 41 40 41 44 50 54 54 53 51 50 53 60 68 75 82 91 102 114 123 129 133 135 134 128 122 118 117 116 117 120 124 126 126 125 125 125 124 125 127 130 130 128 127 128 129 130 129 130 131 133 135 137 137 137 135 133 131 131 134 139 144 148 151 152 146 143
18 18 19 20 21 22 22 22 23 25 26 28 28 27 28 31 34 38 39 41 42 42 42 45 49 52 51 50 50 50 51 55 61 67 73 81 90 100 108 115 122 126 128 126 125 124 121 118 118 120 122 122 121 121 122 123 124 124 125 126 126 125 126 130 132 131 130 130 130 132 134 135 135 135 132 130 131 133 135 137 140 141 143 145 143 142
20 20 20 21 22 23 23 23 24 26 27 28 28 27 28 31 34 37 39 41 43 43 44 48 52 52 50 48 48 50 51 52 54 58 65 72 79 87 94 99 105 110 113 114 117 120 121 121 121 121 120 116 113 114 118 121 122 121 121 122 121 121 123 126 130 132 133 132 131 132 132 133 133 129 122 121 121 123 124 123 120 116 115 112 111 115
21 21 21 21 22 23 24 25 26 28 29 29 28 28 29 31 34 37 39 41 43 45 47 51 53 53 50 48 48 49 50 50 50 53 58 65 72 78 83 88 93 98 101 103 104 105 108 113 117 120 118 114 109 108 111 115 117 117 118 120 121 120 120 122 128 133 136 135 133 132 133 133 131 127 124 125 125 124 121 118 113 102 78 57 50 54
22 22 22 22 23 24 24 26 27 28 29 29 29 30 31 33 35 37 38 40 43 46 48 51 54 54 51 48 47 48 50 51 51 52 55 61 67 74 80 84 88 91 94 96 97 97 97 99 103 107 110 111 111 110 109 111 113 115 117 119 119 118 117 120 126 131 134 134 133 133 134 134 133 133 135 136 134 132 131 130 129 120 82 27 6 6
24 24 24 24 25 25 24 25 27 28 29 29 30 31 33 35 38 39 40 41 43 45 48 50 53 54 53 49 46 46 47 49 49 50 52 56 64 72 78 83 87 89 91 92 93 93 92 91 90 91 96 100 104 107 109 110 111 114 115 117 117 116 115 118 122 127 130 131 132 134 135 137 140 143 146 142 138 137 139 140 139 133 118 31 353 346
25 25 26 27 27 27 26 26 27 28 29 30 31 32 34 37 39 41 42 43 45 46 48 50 52 54 53 50 47 45 45 45 45 45 45 49 58 67 74 82 88 91 91 90 90 89 87 84 81 81 83 88 94 101 105 109 111 112 112 113 115 115 115 116 119 123 126 128 130 133 136 138 143 149 152 147 143 142 143 140 134 127 125 109 5 337
25 26 28 28 29 29 29 29 29 30 31 32 33 35 36 37 39 41 42 44 46 47 48 50 52 53 52 50 47 46 46 45 43 40 39 42 49 58 66 77 87 93 95 95 94 92 89 83 77 72 70 75 83 95 106 110 112 111 108 110 113 114 113 114 116 119 121 123 125 129 132 135 139 145 150 150 146 142 140 135 131 128 130 135 147 187